Torna al catalogo

CZ-4C DEB

AttivoLEO
NORAD 54702·DEBRIS·🇨🇳 China

Lanciato Dec 12, 2022 da Jiuquan Satellite Launch Center

Loading…

Prossimi Passaggi (prossime 24 ore)

TLE

AggiornatoSource: Space-Track

Epoca: Sep 14, 2026, 11:51 UTC

1 54702U 22169D   26257.49391706  .00000191  00000-0  12100-3 0  9997
2 54702  59.9964 292.0835 0007050 349.4676  10.6212 14.32445553196387

Traccia CZ-4C DEB in tempo reale con AllMySat

Download on the App Store